Regional Weather Roundup
Issued by NWS

Home | Current Version | Previous Version | Graphics & Text | Print | Product List | Glossary On
Versions: 1 2 3 4 5 6 7 8 9 10 11 12 13 14 15 16 17 18 19 20 21 22 23 24 25 26 27 28 29 30 31 32 33 34 35 36 37 38 39 40 41 42 43 44 45 46 47 48 49 50
000
ASUS45 KCYS 271110
RWRWY

WYOMING REGIONAL WEATHER ROUNDUP
NATIONAL WEATHER SERVICE CHEYENNE WY
400 AM MST FRI FEB 27 2015

NOTE:  "FAIR" INDICATES FEW OR NO CLOUDS BELOW 12,000 FEET
WITH NO SIGNIFICANT WEATHER AND/OR OBSTRUCTIONS TO VISIBILITY.

WYZ001-271200-
YELLOWSTONE NATIONAL PARK

CITY           SKY/WX    TMP DP  RH WIND       PRES   REMARKS
LK YELLOWSTONE   N/A    -10 -16  74 CALM      29.80F
W YELLOWSTONE  NOT AVBL

$$
WYZ002>013-054>058-071-098>099-271200-
NORTHERN WYOMING

CITY           SKY/WX    TMP DP  RH WIND       PRES   REMARKS
JACKSON        CLOUDY     9   3  78 CALM      29.85F
CODY           FAIR       1  -4  78 CALM      29.92F
GREYBULL       FAIR      12   2  64 E8        30.03F WCI   0
WORLAND        FAIR       4  -1  80 E8        30.01F WCI  -9
SHERIDAN       FAIR     -11 -17  75 S5        30.03F WCI -23
BUFFALO        FAIR       1  -3  83 S16       29.95F WCI -19
GILLETTE       FAIR       1  -4  79 S16       30.05F WCI -19
HULETT         FAIR       3  -4  72 SW5       30.09F WCI  -6
NEWCASTLE      FAIR       1  -8  66 MISG      30.15F

$$
WYZ014>020-022>026-101>103-271200-
CENTRAL WYOMING

CITY           SKY/WX    TMP DP  RH WIND       PRES   REMARKS
BIG PINEY      CLOUDY     9   4  80 S6        29.86F WCI  -1
PINEDALE       FLURRIES   7   3  85 CALM      29.87S
DUBOIS         FAIR       0  -6  78 NW3       29.79F
LANDER         CLOUDY    -2  -5  87 CALM      29.93F
RIVERTON       FAIR      -4  -8  83 NW7       29.95F WCI -18
CASPER         FAIR      -2  -6  83 CALM      29.97F
DOUGLAS        FAIR       3  -1  83 SE17G25   30.03F WCI -17

$$
WYZ021-027>030-104>119-271200-
SOUTHERN WYOMING

CITY           SKY/WX    TMP DP  RH WIND       PRES   REMARKS
EVANSTON       CLOUDY    14  11  87 E9        29.82F WCI   2
FORT BRIDGER   FLURRIES  11   9  93 NE3       29.88F
ROCK SPRINGS   CLOUDY     4   0  83 E5        29.88F WCI  -5
DIXON          PTSUNNY    7   2  82 CALM      29.89S
RAWLINS        MOCLDY     1  -4  79 E7        29.85F WCI -12
SARATOGA       FAIR      -6  -9  84 MISG      29.85F
LARAMIE        FAIR      -1  -5  82 SE21      29.83F WCI -24
CHEYENNE       CLOUDY     3  -1  83 SE13      29.96F FOG     WCI -14
TORRINGTON     LGT SNOW   7   2  80 SE13      30.16F WCI  -9
PINE BLUFFS    CLOUDY     5   1  85 MISG      30.08F

$$


USA.gov is the U.S. government's official web portal to all federal, state and local government web resources and services.